Regional Weather Roundup
Issued by NWS

Home | Current Version | Previous Version | Graphics & Text | Print | Product List | Glossary On
Versions: 1 2 3 4 5 6 7 8 9 10 11 12 13 14 15 16 17 18 19 20 21 22 23 24 25 26 27 28 29 30 31 32 33 34 35 36 37 38 39 40 41 42 43 44 45 46 47 48 49 50
000
ASUS43 KBIS 271520
RWRND

NORTH DAKOTA REGIONAL WEATHER ROUNDUP
NATIONAL WEATHER SERVICE BISMARCK ND
900 AM CST SAT DEC 27 2014

NOTE: "FAIR" INDICATES FEW OR NO CLOUDS BELOW 12,000 FEET WITH NO
SIGNIFICANT WEATHER AND/OR OBSTRUCTIONS TO VISIBILITY.


NDZ001>003-009>011-017-271600-
NORTHWEST NORTH DAKOTA

CITY           SKY/WX    TMP DP  RH WIND       PRES   REMARKS
WILLISTON      CLOUDY    14  10  84 SW6       30.00F WCI   5
MINOT          CLOUDY    18  12  77 SW9       30.01F WCI   7
MINOT AFB      CLOUDY    18  15  91 SW5       30.01F WCI  11
$$

NDZ018>021-031>035-040>046-271600-
SOUTHWEST NORTH DAKOTA

CITY           SKY/WX    TMP DP  RH WIND       PRES   REMARKS
BISMARCK       CLEAR      9   6  88 CALM      30.08S
DICKINSON      CLEAR     15  10  80 W10       30.01F WCI   2
GARRISON         N/A     17  14  88 W10       30.03S WCI   5
HETTINGER ARPT CLEAR     11   7  84 W5        30.06F WCI   3
$$

NDZ004>008-012>016-024-026-027-054-271600-
NORTHEAST NORTH DAKOTA

CITY           SKY/WX    TMP DP  RH WIND       PRES   REMARKS
GRAND FORKS    CLOUDY     8   3  80 S9        30.09F WCI  -5
GRND FRKS AFB  FLURRIES   9   7  92 S7        30.09R WCI  -3
DEVILS LAKE    CLOUDY    18  12  79 W9        30.01S WCI   6
$$

NDZ022-023-025-028>030-036>039-047>053-271600-
SOUTHEAST NORTH DAKOTA

CITY           SKY/WX    TMP DP  RH WIND       PRES   REMARKS
FARGO          CLOUDY     7   1  76 S8        30.13F WCI  -6
JAMESTOWN      CLOUDY    14   9  80 SW6       30.05S WCI   5
$$




USA.gov is the U.S. government's official web portal to all federal, state and local government web resources and services.